Miscellaneous Local Product
Issued by NWS North Platte, NE

Current Version |  Previous Version |  Text Only |  Print | Product List |  Glossary On
Versions: 1 2 3 4 5 6 7 8 9 10 11 12 13 14 15 16 17 18 19 20 21 22 23 24 25 26 27 28 29 30 31 32 33 34 35 36 37 38 39 40 41 42 43 44 45 46 47 48 49 50
559
AXUS43 KLBF 240910
MISLBF


WESTERN AND NORTH CENTRAL NEBRASKA HOURLY WEATHER ROUNDUP
NATIONAL WEATHER SERVICE NORTH PLATTE NE
400 AM CDT FRI MAY 24 2024

NOTE: "FAIR" INDICATES FEW OR NO CLOUDS BELOW 12,000 FEET WITH NO
SIGNIFICANT WEATHER AND/OR OBSTRUCTIONS TO VISIBILITY.

NOTE: STATIONS NOT REPORTING SKY/WEATHER AND PRESSURE ARE
PROVIDED BY RAWS AND APRS NETWORKS AND ARE NOT UNDER NATIONAL
WEATHER SERVICE QUALITY CONTROL.

...OBSERVATIONS IN AND NEAR THE EASTERN PANHANDLE OF NEBRASKA...

CITY           SKY/WX    TMP DP  RH WIND       PRES   REMARKS
PINE RIDGE     CLEAR     42  36  79 W15G26    29.74R
GORDON         PTCLDY    42  36  79 W21       29.74R
CHADRON        PTCLDY    46  37  71 MISG      29.80R
ALLIANCE       MOCLDY    46  35  65 NW30G39   29.81R
GURLEY         CLEAR     46  31  56 NW30G40   29.81R
CRESCENT LAKE    N/A     46  32  59 NW23G40     N/A
$$

...OBSERVATIONS IN NORTHERN NEBRASKA AND FAR SOUTHERN SOUTH DAKOTA...

CITY           SKY/WX    TMP DP  RH WIND       PRES   REMARKS
WINNER         MOCLDY    51  38  60 W17G31    29.61R
AINSWORTH      PTCLDY    50  36  58 W20G25    29.68R
O`NEILL        CLOUDY    51  48  90 SW6       29.63R
THEDFORD       CLEAR     47  33  58 W12G18    29.73R
BROKEN BOW     PTCLDY    50  46  86 W3        29.70R
ORD            CLOUDY    51  50  96 SW5       29.66R
ALBION         CLOUDY    54  52  94 CALM      29.66S
EWING            N/A     52  50  93 CALM        N/A
CHAMBERS         N/A     51  48  90 CALM        N/A
BUTTE            N/A     52  47  84 S5          N/A
SPRINGVIEW       N/A     54  39  57 W15G36      N/A
VALENTINE NWR    N/A     49  33  54 W16G33      N/A
HALSEY           N/A     52  35  52 NW10G17     N/A
$$

...OBSERVATIONS IN SOUTHWEST NEBRASKA AND FAR NORTHEAST COLORADO...

CITY           SKY/WX    TMP DP  RH WIND       PRES   REMARKS
STERLING       CLEAR     48  30  49 W20       29.86R
HOLYOKE        CLEAR     48  30  49 NW18G30   29.82R
IMPERIAL       CLEAR     51  29  42 NW23G36   29.80R
GRANT          CLEAR     48  34  57 NW36G44   29.78R
OGALLALA       CLEAR     50  36  57 NW24G32   29.80R
NORTH PLATTE   CLEAR     49  35  58 NW14      29.77R
MCCOOK         CLEAR     55  37  50 NW14      29.77R
LEXINGTON      CLEAR     52  48  87 W6        29.73R
STAPLETON        N/A     48  35  61 NW14G21     N/A
$$

...OBSERVATIONS IN CENTRAL LINCOLN COUNTY AREA...

CITY           SKY/WX    TMP DP  RH WIND       PRES   REMARKS
N.P. AIRPORT   CLEAR     49  35  58 NW14      29.77R
N.P. HILLCREST   N/A     50  35  57 W18G26      N/A
N.P. DOWNTOWN    N/A     51  36  57 NW7G16      N/A
$$

...OBSERVATIONS ACROSS THE ROCKIES AND WESTERN HIGH PLAINS...

CITY           SKY/WX    TMP DP  RH WIND       PRES   REMARKS
SCOTTSBLUFF    CLEAR     47  31  53 NW20G31   29.85R
KIMBALL        CLEAR     43  28  54 NW20      29.88R
CHEYENNE       CLEAR     41  17  38 NW10G23   29.91F
DENVER         CLEAR     41  22  46 NE6       29.90R
WINTER PARK    CLEAR     19  12  73 NW35G52   29.93S WCI  -1
STEAMBOAT      CLEAR     27  27 100 CALM      30.08S
COPPER MTN     CLEAR     23  19  86 W5        30.14S WCI  17
LEADVILLE      CLEAR     26  21  81 NE8       30.08S WCI  18
ASPEN          CLEAR     32  30  92 S5        30.08S
MONARCH MTN    PTCLDY    25  21  86 W26       30.24  WCI   9
GUNNISON       CLEAR     34  31  88 N3        30.08S
TELLURIDE      MOCLDY    43  14  31 CALM      30.10S
LARAMIE        CLEAR     32  18  56 W10       29.99S
CASPER         CLEAR     34  30  85 W13       29.97S
GILLETTE       CLEAR     38  38 100 NW20      29.88S
SHERIDAN       CLOUDY    39  32  76 CALM      29.93S
JACKSON        CLOUDY    33  30  88 E5        30.05F
YELLOWSTONE      N/A     27  26  96 CALM      30.05F
$$

...OBSERVATIONS ACROSS THE NORTHERN PLAINS...

CITY           SKY/WX    TMP DP  RH WIND       PRES   REMARKS
RAPID CITY     MOCLDY    44  36  73 NW24G31   29.68R
PIERRE         PTCLDY    49  44  83 W15       29.53R
SIOUX FALLS    HVY RAIN  60  58  92 CALM      29.56F FOG
ABERDEEN       CLOUDY    55  51  86 SE6       29.48F
WILLISTON      CLOUDY    45  45 100 N16       29.76R
DICKINSON      RAIN      42  41  96 N21G35    29.63R FOG
BISMARCK       RAIN      51  49  92 N5        29.50S
FARGO          RAIN      58  52  80 E15       29.52F
GRAND FORKS    LGT RAIN  52  47  83 E18G28    29.58F
$$

...OBSERVATIONS ACROSS THE CENTRAL AND SOUTHERN PLAINS...

CITY           SKY/WX    TMP DP  RH WIND       PRES   REMARKS
GRAND ISLAND   CLOUDY    56  52  86 NE12      29.65F
LINCOLN        LGT RAIN  61  58  90 NE12      29.63F
OMAHA          TSTM      61  57  88 N14       29.68S
DES MOINES     CLOUDY    70  65  84 SE17      29.58F
KANSAS CITY    MOCLDY    74  69  85 S15       29.62F
WICHITA        MOCLDY    72  66  81 S18       29.59S
DODGE CITY     CLEAR     60  34  37 N21G32    29.74R
OKLAHOMA CITY  MOCLDY    73  67  81 S20       29.65S
DALLAS         CLOUDY    78  73  84 S13G23    29.70F
AMARILLO       CLEAR     54  42  64 NW6       29.72R
$$

...OBSERVATIONS ACROSS THE COUNTRY...

CITY           SKY/WX    TMP DP  RH WIND       PRES   REMARKS
NEW YORK       MOCLDY    69  61  75 W3        29.83F
MIAMI          PTCLDY    77  69  76 CALM      29.94R
PHOENIX        PTCLDY    80  28  15 N5        29.75S
SAN FRANCISCO  MOCLDY    53  46  77 W15       29.91F
SEATTLE        MOCLDY    50  42  74 S6        29.99F
$$